Wind_Speed
6 5 8 7 6 4 7 7 2 7 3 5 4 2 7 4 7 4 5 13 22 24 24 25 26 26 25 24 23 21 20 19 19 19 18 17 17 19 20 21 20 18 17 16 15 15 14 12 12
6 6 8 5 6 6 8 6 9 7 4 2 5 3 0 6 5 6 12 16 24 25 24 22 26 25 24 23 21 20 19 19 19 19 18 17 17 18 19 19 17 16 15 14 13 12 12 10 9
5 6 5 5 3 8 6 10 9 5 3 7 5 3 4 4 5 5 6 22 24 22 22 21 25 24 24 22 21 20 19 18 18 17 17 16 15 16 17 16 15 14 13 12 11 11 11 10 9
5 6 5 6 6 8 7 9 8 6 6 4 3 7 5 6 3 2 18 24 23 21 20 21 24 23 22 21 21 20 18 17 17 16 16 15 15 15 15 14 13 12 12 11 10 9 9 8 8
7 4 4 4 6 6 8 10 2 6 7 7 2 6 4 4 5 10 22 22 21 21 20 21 23 21 19 18 18 18 18 18 17 16 15 14 14 14 13 13 12 11 10 8 8 7 7 6 6
6 4 6 8 8 5 9 9 3 5 6 6 5 4 6 7 9 16 19 20 19 19 19 20 22 21 20 19 18 17 16 16 16 15 15 15 14 13 12 11 10 9 8 7 5 5 4 3 3
10 7 2 5 7 8 7 7 5 3 5 5 3 2 4 8 11 18 17 18 19 18 18 18 18 18 18 18 18 18 17 17 16 15 14 13 13 12 11 10 9 8 6 5 4 3 2 1 1
5 6 6 4 6 9 7 6 5 1 5 3 3 3 6 11 16 18 16 18 18 18 18 17 18 17 16 14 16 16 16 15 14 14 14 13 12 12 11 10 9 8 6 5 5 4 3 3 5
3 7 7 5 7 4 5 5 6 3 1 2 3 2 4 14 16 18 17 17 18 18 18 17 18 19 17 16 17 17 16 15 14 13 13 12 9 10 10 10 11 9 7 6 6 6 6 7 7
7 8 1 3 3 3 3 4 5 3 3 6 6 3 5 13 16 18 19 19 20 20 20 19 18 18 18 15 14 14 13 13 13 12 12 12 10 10 10 10 11 11 10 8 8 8 8 6 6
4 7 5 5 1 4 5 4 1 4 5 8 6 5 6 11 15 16 17 18 20 20 20 20 18 17 16 14 13 14 14 13 13 13 12 12 11 11 11 9 9 9 9 8 7 7 5 4 5
8 3 4 3 2 4 4 3 4 3 9 7 6 5 6 10 13 16 15 15 16 18 19 20 20 19 18 15 15 14 14 14 14 15 15 13 12 11 10 10 9 9 9 8 7 6 6 5 6
8 6 4 5 3 3 2 3 2 3 10 8 5 1 4 7 12 14 14 13 12 12 14 16 17 17 16 15 12 12 12 12 11 11 12 13 12 11 11 10 10 10 9 9 8 8 8 8 9
4 5 5 5 3 4 6 3 4 9 9 4 3 5 6 7 9 11 11 8 6 9 11 13 15 16 14 13 12 11 11 11 12 11 11 13 11 10 10 11 10 11 11 11 10 10 10 10 11
4 9 8 8 7 5 4 10 5 7 5 5 5 6 7 8 8 7 4 6 7 8 10 11 14 14 13 13 13 13 12 11 11 11 11 11 12 12 11 12 11 13 12 12 13 12 11 14 14
8 7 10 9 9 5 7 12 6 6 6 8 9 9 7 5 2 3 4 3 5 6 8 10 11 13 14 13 12 12 12 12 11 11 11 12 14 14 12 14 14 15 15 15 14 13 13 14 14
8 6 7 10 6 0 8 9 6 4 5 7 10 12 12 8 10 10 4 3 3 3 6 8 11 13 14 13 13 12 11 11 12 11 12 12 12 14 14 15 16 15 15 16 16 15 14 14 14
8 8 7 8 9 9 8 5 5 4 4 6 8 10 12 11 10 8 6 3 2 2 3 5 7 10 11 11 11 11 11 11 11 11 12 10 10 12 14 15 18 15 15 17 17 16 15 15 14
4 6 8 6 4 6 11 6 5 5 2 4 7 9 11 11 12 12 10 7 4 3 3 4 5 7 9 10 11 10 11 10 9 9 8 7 7 9 13 14 15 16 18 19 17 17 15 16 14
9 10 10 5 5 6 8 10 8 5 4 5 5 7 9 9 10 12 12 11 10 7 7 6 5 5 8 9 9 8 9 8 9 10 8 7 4 2 8 13 16 19 20 20 18 16 16 15 13
12 11 7 9 7 9 9 13 14 9 7 7 7 6 7 7 8 9 11 12 11 11 11 11 10 8 4 5 7 9 11 12 12 13 11 9 10 13 10 13 15 17 21 23 13 10 12 16 15
13 12 10 8 9 10 7 11 14 15 12 7 6 5 6 6 6 8 11 12 12 12 8 7 7 5 7 7 5 5 8 10 9 7 9 10 7 12 15 13 16 26 25 30 27 13 10 12 10
12 6 11 10 11 12 14 8 11 11 12 12 8 7 6 5 6 9 9 10 11 12 14 14 14 14 10 9 8 8 8 8 5 5 7 5 2 3 17 19 17 24 16 22 21 20 17 14 14
5 9 9 11 13 15 17 16 11 14 13 12 10 9 8 7 7 10 11 12 13 13 13 13 15 15 13 12 11 10 8 6 4 4 4 6 8 7 2 5 9 8 20 28 23 22 22 18 16
11 12 9 11 9 13 0 7 13 8 6 10 12 11 10 9 8 10 11 13 12 11 12 12 13 14 14 14 14 15 14 13 12 10 10 9 10 14 14 15 12 7 5 9 12 13 16 15 15
20 16 12 10 10 8 8 7 5 6 9 8 11 11 10 10 9 10 12 10 10 9 9 9 10 11 12 12 13 12 11 11 12 12 11 10 9 6 8 9 8 10 8 9 13 13 11 11 10
12 11 11 15 13 11 14 9 9 10 10 11 12 13 13 12 12 11 11 11 10 6 6 7 8 8 9 9 9 10 11 11 11 10 9 9 9 9 8 7 8 10 14 9 11 12 12 10 9
11 7 8 10 14 17 11 13 10 14 17 15 15 15 14 15 14 12 13 13 8 4 5 6 6 6 6 6 7 8 7 6 7 8 9 9 9 10 10 9 8 8 12 15 12 13 11 11 9
10 14 13 11 13 14 15 11 9 12 14 16 16 15 15 16 15 14 15 15 8 4 5 6 5 8 8 6 5 5 4 4 5 6 8 9 10 11 12 12 12 11 10 13 15 14 15 10 10
12 16 20 12 18 11 13 14 4 4 4 9 13 15 16 15 15 15 18 17 12 7 8 9 7 6 7 6 2 2 2 3 4 6 7 9 10 13 14 15 16 15 13 14 13 16 16 13 12
Wind_Direction
305 286 282 260 232 234 114 76 351 17 54 36 112 226 25 342 353 14 137 159 154 155 160 163 166 167 167 167 166 163 157 150 141 131 122 115 112 114 117 116 114 111 109 107 107 107 107 102 98
285 293 253 274 254 178 95 32 18 6 337 213 137 206 277 63 35 95 142 168 159 157 160 165 167 168 170 168 167 164 158 152 143 135 127 121 116 118 119 119 118 117 114 113 113 112 108 105 100
273 274 274 299 306 50 38 16 1 354 123 164 137 278 17 36 67 135 124 158 157 158 160 168 168 170 169 169 168 165 160 154 145 139 133 127 121 121 123 123 123 122 119 116 114 110 104 100 93
280 214 224 238 72 61 17 360 356 141 138 154 80 98 111 51 26 127 152 157 158 160 162 178 171 171 171 169 167 166 161 157 150 145 141 138 133 128 128 127 128 124 124 122 119 110 103 97 86
243 253 215 126 91 54 28 8 353 185 139 142 232 104 73 69 79 131 150 159 164 163 164 169 172 173 173 169 168 168 165 162 158 155 150 147 143 140 137 137 136 134 134 136 133 120 114 103 86
237 275 219 166 110 78 55 10 120 193 158 132 133 122 82 114 122 144 156 163 167 167 166 169 174 177 175 173 171 173 172 169 168 165 161 157 154 154 151 151 147 148 150 154 151 145 137 123 91
273 257 11 131 116 94 31 8 33 197 161 132 60 161 92 154 141 154 163 169 172 172 170 170 172 177 180 180 179 179 178 178 176 175 171 166 164 164 166 167 167 168 173 175 177 183 184 208 235
272 268 208 209 176 89 33 11 41 225 118 60 275 164 136 154 156 161 171 176 179 178 178 175 176 178 179 185 188 187 185 184 184 183 179 177 177 177 181 183 185 185 190 203 217 233 238 247 261
255 247 229 142 202 91 41 2 62 55 194 207 156 20 65 141 159 168 174 182 185 186 185 184 183 185 186 186 192 189 191 188 190 190 191 187 184 195 205 200 215 203 216 227 238 251 256 267 275
244 251 131 48 60 330 332 335 355 248 140 152 175 118 136 160 176 181 183 186 190 188 191 192 192 191 191 190 191 188 193 191 193 194 199 193 201 201 204 210 220 214 217 230 242 250 257 275 253
177 268 132 150 354 318 312 253 329 275 208 46 10 59 175 185 192 197 194 193 194 193 195 198 196 197 198 197 195 196 199 199 201 201 202 205 211 213 210 215 221 224 238 231 243 252 243 259 277
212 167 194 125 149 293 288 319 218 260 25 351 321 332 186 199 201 205 202 196 194 194 198 200 199 198 199 202 203 204 206 205 207 206 203 203 209 215 217 220 218 218 217 217 218 234 239 250 260
230 176 191 211 235 272 290 225 345 50 352 325 323 291 245 226 218 212 204 206 199 201 203 208 204 204 204 205 209 217 219 220 223 220 218 214 219 221 223 226 225 225 220 225 224 238 251 253 255
151 218 231 228 228 167 255 156 224 32 342 345 318 278 240 252 234 221 217 209 206 212 213 208 205 208 210 214 220 223 225 228 228 229 230 225 228 233 234 237 236 233 233 238 245 247 253 263 266
187 241 200 211 189 161 258 179 74 2 352 8 356 334 288 250 255 260 225 223 221 220 215 203 202 206 212 216 223 229 233 235 234 232 234 234 233 238 234 242 240 242 242 246 248 252 255 261 259
225 237 205 146 190 152 218 158 85 21 10 25 16 12 356 294 253 297 256 249 238 227 200 204 204 204 209 216 221 229 229 230 229 233 235 233 234 236 241 243 244 241 241 243 246 247 255 256 259
198 193 224 164 185 170 226 141 99 39 37 40 30 30 32 38 59 26 321 258 179 200 198 200 202 210 209 210 217 223 224 225 227 227 229 230 236 242 245 249 252 248 247 248 246 248 251 259 263
176 195 199 212 179 223 221 202 126 78 59 52 41 38 48 52 37 33 26 71 150 159 147 181 201 199 202 205 205 209 214 219 222 229 237 240 240 241 245 250 250 248 250 250 250 252 253 257 268
225 233 229 202 177 244 236 242 156 135 109 76 53 39 42 45 51 49 48 45 65 90 131 170 195 197 197 199 203 201 206 200 203 212 222 235 247 256 256 260 263 259 251 250 252 255 257 262 262
216 222 218 216 184 244 208 233 173 152 115 79 56 55 49 43 47 54 63 64 68 74 79 84 114 174 208 220 220 210 181 168 141 128 109 110 140 247 281 272 273 274 263 250 243 250 264 259 262
217 230 216 253 173 232 257 243 194 167 146 118 85 75 64 50 55 57 66 69 63 62 71 73 65 73 104 151 169 163 137 127 144 136 127 88 47 26 13 329 325 310 320 278 259 251 253 264 275
233 211 233 228 239 253 192 271 177 173 169 161 126 107 92 92 88 79 77 76 73 67 75 57 56 74 81 82 109 161 168 155 139 126 108 90 61 22 3 344 324 313 303 298 316 302 272 264 268
244 172 226 232 249 263 240 243 262 171 193 173 153 136 124 113 115 114 103 97 86 82 79 78 73 71 79 93 105 116 112 120 112 111 99 96 53 333 313 312 317 304 290 267 287 293 282 279 269
167 197 227 243 251 243 242 248 252 190 215 158 157 149 145 144 134 124 117 113 105 95 87 82 78 74 74 79 86 94 102 102 80 38 358 10 4 0 299 261 270 302 276 277 280 275 281 278 273
208 224 234 217 212 247 314 243 242 101 135 169 165 157 159 161 158 145 142 125 114 102 95 93 89 86 84 83 84 86 88 88 83 70 60 52 45 35 26 28 11 351 350 308 294 281 270 274 269
206 224 249 262 257 244 142 234 225 140 146 152 154 158 161 174 172 161 146 140 129 111 102 100 100 97 90 88 86 81 77 71 68 60 52 46 50 62 54 27 1 340 336 323 317 315 315 306 289
210 226 262 276 263 266 269 242 167 167 177 174 172 174 179 182 184 180 156 152 136 115 106 112 109 107 102 97 93 81 72 65 60 48 39 33 27 21 16 30 13 354 318 325 317 306 311 315 306
255 246 214 224 257 257 256 252 276 181 197 190 190 190 186 186 188 182 175 166 150 126 129 130 132 119 108 100 89 78 66 44 26 13 7 7 360 355 354 347 354 355 330 322 317 311 307 310 306
195 231 234 278 269 272 268 261 183 200 197 198 203 193 188 190 191 184 187 182 177 173 167 158 147 136 128 109 94 74 46 25 18 16 6 359 350 344 338 338 341 354 345 321 317 304 294 300 303
283 257 229 229 245 238 271 274 115 158 202 210 196 192 192 195 191 190 192 193 201 198 176 166 165 165 154 136 92 28 13 11 7 0 351 346 335 329 327 328 328 334 334 323 317 305 301 300 302
Height
798 799 797 791 789 768 787 788 775 778 775 768 767 774 779 777 785 800 794 795 797 803 808 810 813 815 818 821 823 825 827 828 830 831 832 834 835 835 837 837 839 840 840 840 842 841 841 842 841
800 799 795 776 781 786 791 777 783 777 771 768 769 774 775 782 779 786 792 796 799 803 808 813 815 818 821 823 826 828 830 831 832 833 834 836 837 839 840 841 841 842 842 843 843 843 843 843 842
799 799 785 775 781 792 793 781 779 772 767 769 772 771 775 784 785 786 790 796 801 806 811 815 817 820 822 824 827 830 832 834 835 836 836 838 840 841 842 843 844 844 844 845 846 845 844 845 844
799 791 782 784 795 788 789 781 778 773 768 764 765 778 777 787 785 789 792 798 802 808 813 815 818 821 824 827 828 831 833 835 837 838 839 840 841 843 844 845 846 846 846 847 847 847 847 847 847
799 784 787 791 795 785 779 777 776 772 767 768 767 782 782 787 789 791 795 800 804 808 813 815 819 823 827 829 832 834 834 836 838 840 840 842 843 844 845 846 846 847 847 848 848 849 848 848 848
791 783 792 800 796 784 778 775 774 771 767 769 772 775 781 787 790 794 798 801 805 810 814 818 820 824 826 829 832 835 837 838 839 841 842 843 844 845 846 847 847 847 848 849 849 849 849 849 850
793 787 790 788 796 789 785 772 777 771 768 771 766 777 781 785 790 795 799 803 806 811 815 819 823 826 828 831 832 834 836 838 839 841 843 845 845 846 847 847 847 848 848 849 849 850 850 850 850
789 786 794 790 795 798 780 772 771 770 772 768 768 778 781 781 791 795 799 802 806 810 815 819 823 826 830 832 834 836 837 839 841 843 843 844 846 846 847 847 847 848 848 849 849 849 849 849 849
790 794 792 795 794 790 775 780 770 771 771 771 770 771 779 784 791 793 797 800 804 809 813 817 821 824 828 831 833 835 837 839 841 843 844 845 847 847 848 849 848 848 849 850 849 849 848 848 847
791 793 787 786 786 787 780 781 778 776 775 774 775 779 783 786 789 790 792 796 801 806 810 815 819 823 827 830 833 837 839 840 841 842 844 846 847 847 848 847 848 848 848 849 848 848 847 846 844
789 791 791 790 786 784 783 780 776 777 778 773 775 773 781 785 787 786 788 792 797 802 808 813 819 823 826 830 833 835 837 839 840 842 844 845 846 847 847 847 847 848 847 848 847 847 846 844 844
796 792 790 785 786 786 785 780 780 777 775 774 773 774 779 781 782 783 785 790 794 800 806 811 816 820 824 826 829 832 834 836 838 839 840 843 844 845 846 846 845 846 845 845 845 844 844 844 844
792 791 789 785 783 783 782 782 780 780 780 775 774 778 779 780 780 782 785 790 796 802 807 812 817 821 824 827 829 833 835 837 839 841 842 843 843 843 844 843 843 844 842 842 841 841 842 841 841
788 789 786 782 781 781 785 783 783 783 781 776 776 775 776 780 780 782 788 794 801 804 806 810 814 819 823 827 829 831 834 835 837 839 840 842 842 843 843 843 843 842 841 840 839 838 839 839 838
788 795 785 784 781 783 781 790 793 788 780 780 779 777 775 777 781 784 789 795 799 802 805 808 812 816 820 823 826 829 831 833 835 836 838 840 840 841 841 841 841 840 839 838 837 836 836 836 834
791 790 794 783 783 782 784 794 791 787 785 784 781 778 777 776 781 787 790 795 798 802 804 807 810 812 816 819 822 825 827 829 831 833 834 834 836 837 838 838 837 835 835 834 834 832 831 831 830
791 793 793 794 781 785 784 784 790 788 788 789 785 783 782 780 784 793 793 796 800 802 804 806 807 809 811 814 817 820 823 825 827 828 829 830 832 834 835 834 834 833 832 831 830 829 827 828 827
793 794 794 791 785 785 786 784 790 791 790 792 791 789 790 792 796 798 798 799 802 802 803 805 806 807 809 810 812 814 817 820 822 823 825 826 827 829 830 830 829 829 829 827 827 826 825 825 824
788 793 794 786 782 791 783 785 790 793 793 795 797 800 798 798 801 802 803 803 803 803 803 803 805 806 808 808 809 810 811 813 816 818 820 822 824 825 827 828 829 828 824 822 822 823 823 823 822
791 795 793 785 784 791 782 787 790 792 798 802 805 806 809 809 810 809 808 808 807 806 805 804 803 804 805 806 807 807 808 811 811 813 816 816 817 819 823 825 825 824 820 820 816 819 821 818 818
791 791 789 790 785 784 787 789 792 793 795 802 809 811 812 814 812 811 809 810 810 809 808 807 806 805 805 805 807 808 809 810 812 812 813 813 814 816 817 821 820 818 824 821 821 815 815 815 813
792 781 784 790 795 796 779 799 781 782 789 798 806 809 811 813 814 813 813 812 811 810 810 810 809 809 808 808 808 809 808 812 814 815 811 809 808 810 812 817 818 812 821 800 817 817 814 814 811
784 775 783 785 791 790 785 797 771 773 784 790 800 806 809 811 810 812 813 813 814 814 813 814 814 813 812 812 812 813 813 814 816 817 811 812 810 799 804 816 814 810 814 824 826 814 817 814 813
769 783 785 785 786 798 784 782 774 767 770 778 797 802 806 808 808 810 813 814 815 815 816 817 817 817 817 817 817 816 816 817 818 818 816 815 813 806 802 808 810 813 816 817 815 818 813 810 808
778 785 799 800 796 794 769 778 769 764 766 772 789 798 803 807 805 808 811 813 815 817 818 819 820 820 820 820 820 819 818 818 819 818 817 815 812 810 812 808 814 817 813 818 815 813 812 806 803
774 775 784 798 789 773 779 790 769 761 772 779 785 795 802 805 804 805 809 813 815 818 819 820 821 821 822 822 822 822 820 819 818 818 818 818 817 818 814 816 819 821 817 816 814 809 806 803 802
765 782 761 778 768 787 767 757 768 772 780 784 789 794 799 802 804 805 811 814 816 818 820 821 822 823 823 824 823 823 822 822 821 821 821 821 821 820 818 815 816 816 822 813 813 810 807 804 802
762 751 782 777 802 804 779 766 761 772 774 778 783 789 793 797 802 805 811 814 816 818 820 821 821 822 823 824 824 824 825 825 825 824 824 824 823 822 820 819 816 814 817 815 814 810 806 804 800
764 769 769 765 762 777 778 761 732 747 756 766 771 779 786 792 796 802 809 813 816 817 818 820 821 821 823 824 825 826 826 826 825 825 824 823 822 821 821 820 817 811 811 815 813 811 810 805 802
750 747 752 774 778 768 770 764 742 746 749 755 762 771 778 784 790 797 804 808 813 814 817 820 821 821 822 824 825 826 827 827 826 825 824 823 822 821 819 816 814 811 810 813 811 811 809 802 800